Погода в Красносамарском

Россия / Самарская область     53°03′28″N   50°48′10″E
темп.,
°C
ветер,
м/с
пор.,
м/с
влажн.,
%
обл.,
%
осадки,
мм/ч
давл.,
гПа
погр.,
м
21 апреля, ср
ср2101:00+4юв8164792 0.0 1027628
04:00+4юв81647100 0.0 1027693
07:00+4юв81649100 0.1 1026751
10:00+4юв91751100 0.3 1026637
13:00+4юв81664100 0.2 1026794
16:00+4ююв81566100 0.9 1026933
19:00+3ююв81683100 2.9 1026780
22:00+4ююв81689100 4.3 1026833
22 апреля, чт
чт2201:00+5ююв61488100 1.8 1025607
04:00+5ююв51390100 2.7 1026557
07:00+5ююв61283100 0.1 1026558
10:00+7ю6981100 0.1 1027665
13:00+8ююв6779100 0.0 1027782
16:00+7ююв6782100 0.1 1027670
19:00+6ююв4780100 0.0 1028573
22:00+4юв379198 0.0 1028276
23 апреля, пт
пт2301:00+5ююв3588100 0.0 1027412
04:00+5юв2391100 0.0 1027139
07:00+6вюв2392100 0.0 1028157
10:00+8в337996 0.0 1027483
13:00+12в5563100 0.0 10261105
16:00+13в4557100 0.0 10251288
19:00+11всв3468100 0.0 102374
22:00+10юв2274100 0.0 102225
24 апреля, сб
сб2401:00+8вюв4889100 0.2 1020547
04:00+7всв3790100 0.4 1018562
07:00+7св4892100 1.1 1016532
10:00+7всв3593100 2.5 1014391
13:00+8ссв2389100 0.6 1014228
16:00+8сз3494100 1.2 1014281
19:00+7з2591100 0.1 1014272
22:00+6юз24936 0.1 101497
25 апреля, вс
вс2501:00+5ю359220 0.0 101389
04:00+7ю51293100 0.1 1012343
07:00+7з61087100 0.1 1014939
10:00+10з811575 0.1 10151256
13:00+13зюз8114310 0.0 10172320
16:00+14зюз8103880 0.0 10172397
19:00+11зюз485514 0.1 1018241
22:00+9юз3569100 0.1 101982